Location: LDNL
(36.4545°S, 141.6685°E)
Time: 22:55:06
(UTC+11:00)

Hubble Space Telescope - Visible Passes

Search period start: 01 March 2024 00:00
Search period end: 11 March 2024 00:00
Orbit: 516 x 519 km, 28.5° (Epoch: 29 February)

Date Brightness Start Highest point End Pass type
(mag) Time Alt. Az. Time Alt. Az. Time Alt. Az.
01 Mar 2.7 06:19:03 11° NNW 06:21:36 17° NNE 06:24:20 10° ENE visible
02 Mar 2.6 06:02:39 16° NNW 06:04:07 19° NNE 06:07:01 10° ENE visible
03 Mar 2.4 05:46:13 20° N 05:46:37 20° NNE 05:49:39 10° ENE visible
04 Mar 2.5 05:29:47 21° NNE 05:29:47 21° NNE 05:32:15 10° ENE visible
05 Mar 2.9 05:13:21 17° NE 05:13:21 17° NE 05:14:49 10° ENE visible
05 Mar 2.1 06:48:29 10° WNW 06:51:50 25° N 06:55:10 10° NE visible
06 Mar 3.4 04:56:56 12° ENE 04:56:56 12° ENE 04:57:22 10° ENE visible
06 Mar 2.1 06:31:50 14° NW 06:34:19 24° N 06:37:37 10° NE visible
07 Mar 2.2 06:15:28 20° NW 06:16:46 23° N 06:20:01 10° NE visible
08 Mar 2.2 05:59:08 22° NNW 05:59:14 22° N 06:02:24 10° NE visible
09 Mar 2.6 05:42:52 18° NNE 05:42:52 18° NNE 05:44:44 10° NE visible
10 Mar 3.3 05:26:40 12° NNE 05:26:40 12° NNE 05:27:02 10° NE visible
